EN

Hourly Weather Jumprava

Today, 30 November, Monday

Time Temperature Precipitation Wind Pressure Humidity
00:00 -2°C° 0 mm 2 mps 759 mmHg 88%
01:00 -2°C° 0 mm 2 mps 759 mmHg 89%
02:00 -1°C° 0 mm 1 mps 759 mmHg 91%
03:00 -1°C° 0.1 mm 1 mps 758 mmHg 92%
04:00 0°C° 0.1 mm 1 mps 758 mmHg 93%
05:00 0°C° 0.1 mm 1 mps 758 mmHg 94%
06:00 0°C° 0.1 mm 1 mps 758 mmHg 94%
07:00 -1°C° 0.1 mm 0 mps 758 mmHg 95%
08:00 -1°C° 0.1 mm 0 mps 758 mmHg 96%
09:00 -1°C° 0.3 mm 0 mps 758 mmHg 95%
10:00 0°C° 0.3 mm 1 mps 758 mmHg 94%
11:00 0°C° 0.3 mm 1 mps 758 mmHg 94%
12:00 +1°C° 0.3 mm 1 mps 758 mmHg 94%
13:00 -1°C° 0.3 mm 2 mps 758 mmHg 94%
14:00 -1°C° 0.3 mm 2 mps 758 mmHg 95%
15:00 -1°C° 0.3 mm 2 mps 758 mmHg 95%
16:00 -1°C° 0.3 mm 2 mps 758 mmHg 96%
17:00 -2°C° 0.3 mm 3 mps 758 mmHg 96%
18:00 -2°C° 0.2 mm 3 mps 758 mmHg 96%
19:00 -2°C° 0.2 mm 3 mps 758 mmHg 96%
20:00 -2°C° 0.2 mm 3 mps 758 mmHg 96%
21:00 -2°C° 0.3 mm 3 mps 758 mmHg 96%
22:00 -2°C° 0.3 mm 3 mps 758 mmHg 96%
23:00 -2°C° 0.3 mm 3 mps 758 mmHg 96%

Tomorrow, 1 December, Tuesday

Time Temperature Precipitation Wind Pressure Humidity
00:00 -2°C° 0.3 mm 3 mps 758 mmHg 95%
01:00 -2°C° 0.3 mm 3 mps 758 mmHg 94%
02:00 -1°C° 0.3 mm 3 mps 759 mmHg 94%
03:00 -1°C° 0.1 mm 3 mps 759 mmHg 93%
04:00 -1°C° 0.1 mm 3 mps 759 mmHg 93%
05:00 -1°C° 0.1 mm 3 mps 759 mmHg 93%
06:00 -2°C° 0 mm 3 mps 760 mmHg 92%
07:00 -2°C° 0 mm 3 mps 760 mmHg 91%
08:00 -2°C° 0 mm 3 mps 761 mmHg 91%
09:00 -2°C° 0 mm 3 mps 761 mmHg 90%
10:00 -2°C° 0 mm 3 mps 761 mmHg 90%
11:00 -2°C° 0 mm 3 mps 762 mmHg 90%
12:00 -2°C° 0 mm 3 mps 762 mmHg 89%
13:00 -1°C° 0 mm 3 mps 762 mmHg 88%
14:00 -1°C° 0 mm 3 mps 763 mmHg 87%
15:00 -1°C° 0 mm 2 mps 763 mmHg 87%
16:00 -2°C° 0 mm 2 mps 763 mmHg 88%
17:00 -2°C° 0 mm 2 mps 764 mmHg 88%
18:00 -2°C° 0 mm 2 mps 764 mmHg 89%
19:00 -2°C° 0 mm 2 mps 765 mmHg 90%
20:00 -2°C° 0 mm 2 mps 765 mmHg 91%
21:00 -2°C° 0 mm 2 mps 765 mmHg 90%
22:00 -2°C° 0 mm 2 mps 765 mmHg 90%
23:00 -2°C° 0 mm 2 mps 766 mmHg 90%

Day after tomorrow, 2 December, Wednesday

Time Temperature Precipitation Wind Pressure Humidity
00:00 -2°C° 0 mm 2 mps 766 mmHg 89%
01:00 -2°C° 0 mm 2 mps 766 mmHg 89%
02:00 -2°C° 0 mm 2 mps 766 mmHg 88%
03:00 -2°C° 0 mm 2 mps 766 mmHg 88%
04:00 -3°C° 0 mm 2 mps 766 mmHg 88%
05:00 -3°C° 0 mm 2 mps 766 mmHg 88%
06:00 -3°C° 0 mm 2 mps 766 mmHg 90%
07:00 -2°C° 0 mm 1 mps 766 mmHg 91%
08:00 -2°C° 0 mm 1 mps 766 mmHg 93%
09:00 -4°C° 0 mm 2 mps 766 mmHg 90%
10:00 -3°C° 0 mm 2 mps 766 mmHg 88%
11:00 -3°C° 0 mm 2 mps 766 mmHg 85%
12:00 -3°C° 0 mm 2 mps 766 mmHg 84%
13:00 -3°C° 0 mm 2 mps 766 mmHg 83%
14:00 -2°C° 0 mm 2 mps 765 mmHg 81%
15:00 -3°C° 0 mm 2 mps 765 mmHg 84%
16:00 -3°C° 0 mm 2 mps 765 mmHg 86%
17:00 -4°C° 0 mm 2 mps 764 mmHg 88%
18:00 -4°C° 0 mm 2 mps 764 mmHg 88%
19:00 -4°C° 0 mm 2 mps 764 mmHg 89%
20:00 -4°C° 0 mm 2 mps 764 mmHg 89%
21:00 -4°C° 0 mm 2 mps 763 mmHg 89%
22:00 -4°C° 0 mm 2 mps 763 mmHg 89%
23:00 -4°C° 0 mm 2 mps 763 mmHg 90%

3 December, Thursday

Time Temperature Precipitation Wind Pressure Humidity
00:00 -4°C° 0 mm 2 mps 763 mmHg 91%
01:00 -5°C° 0 mm 3 mps 762 mmHg 92%
02:00 -5°C° 0 mm 3 mps 762 mmHg 93%
03:00 -4°C° 0 mm 3 mps 762 mmHg 93%
04:00 -4°C° 0 mm 3 mps 761 mmHg 92%
05:00 -4°C° 0 mm 3 mps 761 mmHg 91%
06:00 -4°C° 0 mm 3 mps 761 mmHg 88%
07:00 -4°C° 0 mm 3 mps 760 mmHg 85%
08:00 -4°C° 0 mm 4 mps 760 mmHg 82%
09:00 -4°C° 0 mm 4 mps 760 mmHg 82%
10:00 -4°C° 0 mm 4 mps 760 mmHg 82%
11:00 -4°C° 0 mm 3 mps 760 mmHg 82%
12:00 -4°C° 0 mm 4 mps 760 mmHg 82%
13:00 -3°C° 0 mm 4 mps 759 mmHg 81%
14:00 -3°C° 0 mm 4 mps 759 mmHg 81%
15:00 -3°C° 0 mm 4 mps 759 mmHg 81%
16:00 -4°C° 0 mm 4 mps 759 mmHg 82%
17:00 -4°C° 0 mm 4 mps 759 mmHg 83%
18:00 -4°C° 0 mm 4 mps 759 mmHg 83%
19:00 -4°C° 0 mm 4 mps 758 mmHg 84%
20:00 -4°C° 0 mm 4 mps 758 mmHg 84%
21:00 -4°C° 0 mm 4 mps 758 mmHg 84%
22:00 -4°C° 0 mm 4 mps 758 mmHg 85%
23:00 -4°C° 0 mm 4 mps 758 mmHg 85%

4 December, Friday

Time Temperature Precipitation Wind Pressure Humidity
00:00 -4°C° 0 mm 4 mps 758 mmHg 86%
01:00 -4°C° 0 mm 4 mps 758 mmHg 86%
02:00 -3°C° 0 mm 4 mps 757 mmHg 87%
03:00 -3°C° 0 mm 4 mps 757 mmHg 87%
04:00 -3°C° 0 mm 4 mps 757 mmHg 86%
05:00 -3°C° 0 mm 4 mps 757 mmHg 86%
06:00 -3°C° 0 mm 4 mps 757 mmHg 86%
07:00 -3°C° 0 mm 4 mps 757 mmHg 86%
08:00 -3°C° 0 mm 4 mps 756 mmHg 86%
09:00 -3°C° 0 mm 4 mps 756 mmHg 85%
10:00 -2°C° 0 mm 4 mps 756 mmHg 83%
11:00 -2°C° 0 mm 5 mps 756 mmHg 82%
12:00 -2°C° 0 mm 5 mps 756 mmHg 81%
13:00 -1°C° 0 mm 5 mps 756 mmHg 80%
14:00 -1°C° 0 mm 5 mps 756 mmHg 80%
15:00 -1°C° 0 mm 5 mps 756 mmHg 81%
16:00 -2°C° 0 mm 5 mps 756 mmHg 83%
17:00 -2°C° 0 mm 5 mps 756 mmHg 84%
18:00 -2°C° 0 mm 5 mps 756 mmHg 85%
19:00 -1°C° 0 mm 5 mps 756 mmHg 85%
20:00 -1°C° 0 mm 5 mps 756 mmHg 86%
21:00 -1°C° 0 mm 5 mps 756 mmHg 87%
22:00 0°C° 0 mm 5 mps 756 mmHg 87%
23:00 0°C° 0 mm 4 mps 756 mmHg 87%

5 December, Saturday

Time Temperature Precipitation Wind Pressure Humidity
00:00 +1°C° 0 mm 5 mps 756 mmHg 87%
01:00 +1°C° 0 mm 5 mps 755 mmHg 86%
02:00 +1°C° 0 mm 5 mps 755 mmHg 86%
03:00 +1°C° 0 mm 5 mps 755 mmHg 86%
04:00 +1°C° 0 mm 5 mps 755 mmHg 86%
05:00 +1°C° 0 mm 5 mps 755 mmHg 86%
06:00 +1°C° 0 mm 5 mps 755 mmHg 87%
07:00 +1°C° 0 mm 5 mps 755 mmHg 87%
08:00 +1°C° 0 mm 5 mps 755 mmHg 87%
09:00 +1°C° 0 mm 5 mps 755 mmHg 87%
10:00 +1°C° 0 mm 5 mps 755 mmHg 87%
11:00 +1°C° 0 mm 5 mps 755 mmHg 87%
12:00 +1°C° 0 mm 5 mps 755 mmHg 88%
13:00 +1°C° 0 mm 5 mps 755 mmHg 88%
14:00 +1°C° 0 mm 5 mps 755 mmHg 88%
15:00 +1°C° 0 mm 5 mps 755 mmHg 89%
16:00 +1°C° 0 mm 5 mps 755 mmHg 90%
17:00 +1°C° 0 mm 5 mps 755 mmHg 90%
18:00 +1°C° 0 mm 5 mps 755 mmHg 90%
19:00 +1°C° 0 mm 5 mps 755 mmHg 90%
20:00 +1°C° 0 mm 5 mps 755 mmHg 90%
21:00 +1°C° 0 mm 5 mps 755 mmHg 90%
22:00 +1°C° 0 mm 5 mps 756 mmHg 90%
23:00 +1°C° 0 mm 5 mps 756 mmHg 90%
Show more